FW8536 Weather Reports


Display with metric or nautical units.
time (UTC)temp
F
wind
direction
speed
MPH
gust
MPH
rain 1hr
in
rain 24hr
in
rain mn
in
humidity
%
barometer
mb
20260901044539 58 360 8.0 10.0 0.00 0.00 0.00 60 999.8
20260901044038 59 300 8.0 10.0 0.00 0.00 0.00 59 999.9
20260901043537 59 298 7.0 8.0 0.00 0.00 0.00 59 999.9
20260901043036 59 360 7.0 8.0 0.00 0.00 0.00 59 999.9
20260901042536 59 304 7.0 8.0 0.00 0.00 0.00 59 999.8
20260901042034 60 306 7.0 8.0 0.00 0.00 0.00 57 999.8
20260901041533 61 312 7.0 9.0 0.00 0.00 0.00 54 999.8
20260901041033 63 304 7.0 10.0 0.00 0.00 0.00 52 999.8
20260901040531 63 360 8.0 9.0 0.00 0.00 0.00 53 999.9
20260901040031 63 286 7.0 9.0 0.00 0.00 0.00 52 999.9
20260901035531 64 288 7.0 9.0 0.00 0.00 0.00 52 999.8
20260901035030 63 271 7.0 9.0 0.00 0.00 0.00 52 1000.0
20260901034530 63 360 6.0 9.0 0.00 0.00 0.00 52 1000.0
20260901034030 63 270 7.0 10.0 0.00 0.00 0.00 52 1000.0
20260901033632 63 268 8.0 10.0 0.00 0.00 0.00 52 1000.0
20260901033037 63 270 7.0 10.0 0.00 0.00 0.00 52 1000.0
20260901032530 63 261 7.0 9.0 0.00 0.00 0.00 52 1000.0
20260901032029 64 268 8.0 9.0 0.00 0.00 0.00 51 1000.1
20260901031538 64 360 7.0 8.0 0.00 0.00 0.00 50 1000.1
20260901031027 65 267 7.0 8.0 0.00 0.00 0.00 50 1000.1
20260901030527 65 262 7.0 9.0 0.00 0.00 0.00 49 1000.1
20260901030027 65 264 8.0 9.0 0.00 0.00 0.00 50 1000.0
20260901025529 65 360 7.0 9.0 0.00 0.00 0.00 50 999.9
20260901025029 64 267 7.0 9.0 0.00 0.00 0.00 50 999.9
20260901024525 64 264 7.0 9.0 0.00 0.00 0.00 50 999.9
20260901024024 64 267 7.0 9.0 0.00 0.00 0.00 50 1000.0
20260901023524 65 246 7.0 9.0 0.00 0.00 0.00 49 999.9
20260901023023 65 256 7.0 9.0 0.00 0.00 0.00 49 999.8
20260901022523 65 259 7.0 9.0 0.00 0.00 0.00 49 999.7
20260901022021 66 360 7.0 8.0 0.00 0.00 0.00 48 999.6
20260901021540 66 267 6.0 8.0 0.00 0.00 0.00 48 999.6
20260901021019 67 265 7.0 8.0 0.00 0.00 0.00 47 999.5
20260901020520 67 266 6.0 8.0 0.00 0.00 0.00 47 999.3
20260901020016 67 261 6.0 8.0 0.00 0.00 0.00 46 999.3
20260901015514 68 256 6.0 8.0 0.00 0.00 0.00 46 999.2
20260901015016 69 257 6.0 8.0 0.00 0.00 0.00 45 999.1
20260901014512 70 259 6.0 9.0 0.00 0.00 0.00 44 999.0
20260901014010 70 259 6.0 9.0 0.00 0.00 0.00 43 999.0
20260901013610 72 267 6.0 8.0 0.00 0.00 0.00 42 998.9
20260901013010 72 267 6.0 9.0 0.00 0.00 0.00 42 998.8
20260901012507 73 266 6.0 11.0 0.00 0.00 0.00 41 998.7
20260901012006 73 260 7.0 11.0 0.00 0.00 0.00 40 998.7
20260901011506 74 264 7.0 18.0 0.00 0.00 0.00 39 998.6
20260901011003 75 360 9.0 19.0 0.00 0.00 0.00 39 998.6
20260901010502 75 360 13.0 19.0 0.00 0.00 0.00 38 998.6
20260901010003 76 267 14.0 18.0 0.00 0.00 0.00 38 998.5
20260901005601 76 269 10.0 18.0 0.00 0.00 0.00 38 998.5
20260901005059 76 273 12.0 22.0 0.00 0.00 0.00 37 998.4
20260901004602 76 360 16.0 22.0 0.00 0.00 0.00 37 998.4
20260901004059 77 254 15.0 23.0 0.00 0.00 0.00 37 998.4
20260901003556 77 267 16.0 24.0 0.00 0.00 0.00 37 998.3
20260901002555 77 360 15.0 25.0 0.00 0.00 0.00 36 998.4
20260901002055 77 268 18.0 25.0 0.00 0.00 0.00 36 998.4
20260901001555 78 259 15.0 26.0 0.00 0.00 0.00 36 998.2
20260901001054 77 250 15.0 26.0 0.00 0.00 0.00 36 998.2
20260901000554 78 248 17.0 26.0 0.00 0.00 0.00 36 998.2
20260901000054 78 263 18.0 27.0 0.00 0.00 0.00 36 998.3
20260831235553 78 249 22.0 29.0 0.00 0.00 0.00 36 998.2
20260831235053 78 259 16.0 29.0 0.00 0.00 0.00 36 998.2
20260831234552 78 262 20.0 27.0 0.00 0.00 0.00 36 998.2
20260831234056 78 251 17.0 31.0 0.00 0.00 0.00 35 998.1
20260831233551 78 244 24.0 32.0 0.00 0.00 0.00 35 998.2
20260831232552 78 267 20.0 30.0 0.00 0.00 0.00 35 998.2
20260831232052 78 254 21.0 30.0 0.00 0.00 0.00 34 998.1
20260831231606 78 246 23.0 32.0 0.00 0.00 0.00 35 998.1
20260831231051 78 242 26.0 35.0 0.00 0.00 0.00 34 998.1
20260831230550 79 250 22.0 35.0 0.00 0.00 0.00 34 998.1
20260831230051 79 242 22.0 30.0 0.00 0.00 0.00 35 998.1
20260831225550 79 257 22.0 34.0 0.00 0.00 0.00 34 998.1
20260831225051 79 360 22.0 34.0 0.00 0.00 0.00 34 998.0
20260831224549 79 248 19.0 32.0 0.00 0.00 0.00 35 998.1
20260831224048 79 250 20.0 32.0 0.00 0.00 0.00 34 998.0
20260831223548 79 254 23.0 37.0 0.00 0.00 0.00 33 997.8
20260831222549 79 248 22.0 37.0 0.00 0.00 0.00 34 998.0
20260831222048 79 246 23.0 33.0 0.00 0.00 0.00 33 998.1
20260831221548 79 257 20.0 35.0 0.00 0.00 0.00 34 998.0
20260831221047 79 360 22.0 35.0 0.00 0.00 0.00 34 998.0
20260831220547 79 252 22.0 37.0 0.00 0.00 0.00 34 998.0
20260831220047 79 245 25.0 37.0 0.00 0.00 0.00 34 998.0
20260831215547 79 244 23.0 34.0 0.00 0.00 0.00 34 997.9
20260831215048 79 360 24.0 34.0 0.00 0.00 0.00 33 997.9
20260831214547 79 244 27.0 35.0 0.00 0.00 0.00 32 997.9
20260831214046 79 252 25.0 35.0 0.00 0.00 0.00 33 997.9
20260831213647 79 360 25.0 37.0 0.00 0.00 0.00 34 997.9
20260831212545 79 360 28.0 36.0 0.00 0.00 0.00 33 997.7
20260831212044 79 360 25.0 36.0 0.00 0.00 0.00 33 997.9
20260831211548 79 267 21.0 38.0 0.00 0.00 0.00 33 998.1
20260831211042 79 360 26.0 38.0 0.00 0.00 0.00 34 998.0
20260831210542 79 236 28.0 38.0 0.00 0.00 0.00 33 998.1
20260831210042 79 237 30.0 36.0 0.00 0.00 0.00 31 998.1
20260831205542 79 245 21.0 40.0 0.00 0.00 0.00 34 998.1
20260831205042 79 234 27.0 40.0 0.00 0.00 0.00 33 998.1
20260831204542 80 242 27.0 38.0 0.00 0.00 0.00 32 998.0
20260831204041 79 360 22.0 38.0 0.00 0.00 0.00 33 997.9
20260831203541 79 360 26.0 38.0 0.00 0.00 0.00 33 998.0
20260831202539 79 250 24.0 38.0 0.00 0.00 0.00 33 998.0
20260831202040 79 229 28.0 37.0 0.00 0.00 0.00 34 998.0
20260831201546 78 251 29.0 37.0 0.00 0.00 0.00 33 997.9
20260831201040 78 265 26.0 38.0 0.00 0.00 0.00 35 997.8
20260831200540 79 253 29.0 38.0 0.00 0.00 0.00 34 998.0
20260831200043 78 254 27.0 40.0 0.00 0.00 0.00 34 998.0
20260831195541 78 265 29.0 40.0 0.00 0.00 0.00 36 997.9
20260831195038 78 234 25.0 37.0 0.00 0.00 0.00 35 997.9
20260831194621 78 253 28.0 37.0 0.00 0.00 0.00 35 998.0
20260831194037 77 360 29.0 36.0 0.00 0.00 0.00 35 997.9
20260831193536 77 250 29.0 39.0 0.00 0.00 0.00 36 997.8
20260831192535 77 238 31.0 39.0 0.00 0.00 0.00 35 997.8
20260831192037 77 242 27.0 38.0 0.00 0.00 0.00 37 997.8
20260831191537 77 243 27.0 38.0 0.00 0.00 0.00 37 997.8
20260831191036 78 258 27.0 37.0 0.00 0.00 0.00 37 997.7
20260831190535 77 247 27.0 40.0 0.00 0.00 0.00 37 997.7
20260831190039 76 255 29.0 40.0 0.00 0.00 0.00 39 997.7
20260831185535 76 259 25.0 37.0 0.00 0.00 0.00 39 997.8
20260831185034 77 223 26.0 38.0 0.00 0.00 0.00 39 997.8
20260831184538 77 245 29.0 38.0 0.00 0.00 0.00 38 997.7
20260831184033 76 360 26.0 38.0 0.00 0.00 0.00 40 997.8
20260831183534 77 255 28.0 39.0 0.00 0.00 0.00 38 997.8
20260831182533 76 236 29.0 39.0 0.00 0.00 0.00 40 997.8
20260831182033 76 234 25.0 36.0 0.00 0.00 0.00 40 997.7
20260831181538 76 262 25.0 39.0 0.00 0.00 0.00 39 997.7
20260831181032 76 252 25.0 38.0 0.00 0.00 0.00 41 997.8
20260831180531 76 259 28.0 38.0 0.00 0.00 0.00 40 997.6
20260831180031 76 263 23.0 36.0 0.00 0.00 0.00 41 997.8
20260831175534 75 360 28.0 36.0 0.00 0.00 0.00 42 997.8
20260831175031 75 258 27.0 35.0 0.00 0.00 0.00 42 997.7
20260831174536 75 253 27.0 39.0 0.00 0.00 0.00 43 997.8
20260831174033 74 259 31.0 39.0 0.00 0.00 0.00 44 997.8
20260831173530 74 255 27.0 36.0 0.00 0.00 0.00 43 997.6
20260831172527 74 250 26.0 36.0 0.00 0.00 0.00 45 997.8
20260831172031 74 255 28.0 40.0 0.00 0.00 0.00 44 997.8
20260831171533 73 265 25.0 40.0 0.00 0.00 0.00 44 997.8
20260831171026 73 241 27.0 39.0 0.00 0.00 0.00 44 997.8
20260831170527 73 259 29.0 39.0 0.00 0.00 0.00 43 997.7
20260831170026 73 241 27.0 36.0 0.00 0.00 0.00 43 997.7
20260831165525 73 243 28.0 37.0 0.00 0.00 0.00 42 997.5
20260831165024 72 252 30.0 37.0 0.00 0.00 0.00 43 997.5
20260831164525 73 236 26.0 37.0 0.00 0.00 0.00 42 997.6
20260831164024 72 244 28.0 36.0 0.00 0.00 0.00 42 997.5
20260831163522 71 252 28.0 38.0 0.00 0.00 0.00 43 997.5
20260831162528 71 240 29.0 40.0 0.00 0.00 0.00 43 997.5
20260831162023 70 238 32.0 40.0 0.00 0.00 0.00 43 997.4
20260831161522 70 251 30.0 42.0 0.00 0.00 0.00 43 997.4
20260831161021 70 246 30.0 42.0 0.00 0.00 0.00 42 997.4
20260831160520 70 247 31.0 42.0 0.00 0.00 0.00 42 997.4
20260831160021 69 218 31.0 42.0 0.00 0.00 0.00 42 997.2
20260831155520 70 236 28.0 44.0 0.00 0.00 0.00 42 997.3
20260831155024 70 235 27.0 44.0 0.00 0.00 0.00 42 997.4
20260831154529 69 243 30.0 41.0 0.00 0.00 0.00 42 997.2
20260831154020 69 232 29.0 41.0 0.00 0.00 0.00 41 997.2
20260831153523 69 238 27.0 35.0 0.00 0.00 0.00 43 997.1
20260831152519 69 233 26.0 41.0 0.00 0.00 0.00 44 996.9
20260831152020 68 234 31.0 41.0 0.00 0.00 0.00 44 996.8
20260831151519 68 215 24.0 40.0 0.00 0.00 0.00 44 996.9
20260831151019 68 360 26.0 35.0 0.00 0.00 0.00 44 996.9
20260831150519 68 247 26.0 36.0 0.00 0.00 0.00 44 997.0
20260831150018 67 248 26.0 37.0 0.00 0.00 0.00 44 997.0
20260831145517 67 232 27.0 37.0 0.00 0.00 0.00 45 997.1
20260831145017 67 243 23.0 33.0 0.00 0.00 0.00 45 997.1
20260831144517 66 249 26.0 37.0 0.00 0.00 0.00 46 997.0
20260831144018 66 234 26.0 33.0 0.00 0.00 0.00 46 996.9
20260831143523 66 231 23.0 30.0 0.00 0.00 0.00 45 996.9
20260831142518 65 250 25.0 33.0 0.00 0.00 0.00 45 997.0
20260831142017 65 224 21.0 33.0 0.00 0.00 0.00 45 996.9
20260831141516 65 242 22.0 33.0 0.00 0.00 0.00 46 996.9
20260831141014 64 225 23.0 33.0 0.00 0.00 0.00 46 996.8
20260831140514 64 229 17.0 28.0 0.00 0.00 0.00 47 996.8
20260831140014 63 232 21.0 28.0 0.00 0.00 0.00 47 996.8
20260831135513 63 227 20.0 30.0 0.00 0.00 0.00 48 996.8
20260831135013 63 228 21.0 30.0 0.00 0.00 0.00 48 996.7
20260831134513 62 230 22.0 29.0 0.00 0.00 0.00 49 996.9
20260831134012 62 235 20.0 30.0 0.00 0.00 0.00 49 996.7
20260831133511 62 222 21.0 32.0 0.00 0.00 0.00 50 996.8
20260831132511 61 223 20.0 29.0 0.00 0.00 0.00 51 996.6
20260831132014 61 219 17.0 26.0 0.00 0.00 0.00 53 996.7
20260831131515 60 231 18.0 24.0 0.00 0.00 0.00 54 996.6
20260831131013 59 244 15.0 25.0 0.00 0.00 0.00 56 996.5
20260831130510 59 221 16.0 25.0 0.00 0.00 0.00 57 996.5
20260831130009 58 217 15.0 20.0 0.00 0.00 0.00 58 996.4
20260831125513 58 225 13.0 20.0 0.00 0.00 0.00 59 996.4
20260831125009 57 360 13.0 19.0 0.00 0.00 0.00 59 996.4
20260831124512 57 360 12.0 19.0 0.00 0.00 0.00 60 996.4
20260831124009 56 227 13.0 19.0 0.00 0.00 0.00 60 996.3
20260831123508 56 229 12.0 18.0 0.00 0.00 0.00 61 996.4
20260831122509 56 232 12.0 18.0 0.00 0.00 0.00 61 996.4
20260831122008 55 227 11.0 16.0 0.00 0.00 0.00 63 996.3
20260831121508 55 231 11.0 16.0 0.00 0.00 0.00 63 996.2
20260831121009 55 223 11.0 15.0 0.00 0.00 0.00 63 996.3
20260831120507 55 221 10.0 15.0 0.00 0.00 0.00 63 996.3
20260831120011 55 232 10.0 15.0 0.00 0.00 0.00 63 996.4
20260831115506 55 360 12.0 18.0 0.00 0.00 0.00 63 996.4
20260831115006 55 219 11.0 19.0 0.00 0.00 0.00 63 996.4
20260831114509 56 223 13.0 19.0 0.00 0.00 0.00 63 996.2
20260831114005 56 216 13.0 22.0 0.00 0.00 0.00 64 996.1
20260831113506 55 232 13.0 20.0 0.00 0.00 0.00 65 996.0
20260831112504 55 360 12.0 18.0 0.00 0.00 0.00 66 996.1
20260831112004 55 226 13.0 18.0 0.00 0.00 0.00 67 996.0
20260831111505 54 360 11.0 15.0 0.00 0.00 0.00 68 995.9
20260831111004 54 229 11.0 14.0 0.00 0.00 0.00 69 995.9
20260831110504 54 229 10.0 14.0 0.00 0.00 0.00 69 996.0
20260831110002 54 227 10.0 14.0 0.00 0.00 0.00 69 995.9
20260831105504 54 228 10.0 14.0 0.00 0.00 0.00 70 995.9
20260831105005 54 234 10.0 14.0 0.00 0.00 0.00 70 995.9
20260831104505 55 229 10.0 16.0 0.00 0.00 0.00 70 996.0
20260831104001 55 229 11.0 19.0 0.00 0.00 0.00 70 995.9
20260831103501 55 220 13.0 19.0 0.00 0.00 0.00 70 996.0
20260831102503 55 219 14.0 19.0 0.00 0.00 0.00 74 995.9
20260831102002 54 229 14.0 19.0 0.00 0.00 0.00 77 996.1
20260831101502 52 225 10.0 14.0 0.00 0.00 0.00 81 996.0
20260831101002 52 360 9.0 12.0 0.00 0.00 0.00 82 996.1
20260831100502 52 235 8.0 12.0 0.00 0.00 0.00 82 996.2
20260831100001 52 360 9.0 12.0 0.00 0.00 0.00 82 996.2
20260831095503 52 236 9.0 14.0 0.00 0.00 0.00 83 996.3
20260831095100 51 229 8.0 14.0 0.00 0.00 0.00 84 996.3
20260831094600 50 226 8.0 11.0 0.00 0.00 0.00 84 996.2
20260831094100 50 211 7.0 12.0 0.00 0.00 0.00 83 996.1
20260831093600 51 227 9.0 13.0 0.00 0.00 0.00 82 996.1
20260831092558 51 224 9.0 12.0 0.00 0.00 0.00 83 996.2
20260831092057 51 225 9.0 12.0 0.00 0.00 0.00 83 996.1
20260831091602 51 226 9.0 11.0 0.00 0.00 0.00 83 995.9
20260831091057 51 360 8.0 11.0 0.00 0.00 0.00 83 995.9
20260831090558 51 360 8.0 11.0 0.00 0.00 0.00 83 995.8
20260831090057 51 360 8.0 11.0 0.00 0.00 0.00 83 995.9
20260831085557 51 227 8.0 10.0 0.00 0.00 0.00 84 995.9
20260831085056 51 360 8.0 10.0 0.00 0.00 0.00 84 995.9
20260831084634 50 225 7.0 10.0 0.00 0.00 0.00 84 996.0
20260831084056 50 360 8.0 11.0 0.00 0.00 0.00 84 995.8
20260831083556 50 230 8.0 11.0 0.00 0.00 0.00 84 995.8
20260831082557 49 230 7.0 10.0 0.00 0.00 0.00 85 995.8
20260831082057 49 221 6.0 8.0 0.00 0.00 0.00 85 995.9
20260831081557 49 215 6.0 8.0 0.00 0.00 0.00 85 995.9
20260831081056 49 360 6.0 8.0 0.00 0.00 0.00 85 995.9
20260831080556 49 360 5.0 7.0 0.00 0.00 0.00 84 995.7
20260831080107 49 218 5.0 7.0 0.00 0.00 0.00 84 995.9
20260831075555 50 360 3.0 9.0 0.00 0.00 0.00 82 995.8
20260831075052 51 360 6.0 11.0 0.00 0.00 0.00 82 995.8
20260831074601 51 360 8.0 11.0 0.00 0.00 0.00 82 995.6
20260831074051 51 360 7.0 10.0 0.00 0.00 0.00 82 995.6
20260831073551 51 222 7.0 10.0 0.00 0.00 0.00 83 995.6
20260831072553 51 360 7.0 9.0 0.00 0.00 0.00 84 995.7
20260831072049 50 360 7.0 9.0 0.00 0.00 0.00 84 995.7
20260831071600 51 182 6.0 9.0 0.00 0.00 0.00 83 995.8
20260831071048 51 360 6.0 10.0 0.00 0.00 0.00 82 995.6
20260831070547 52 360 7.0 10.0 0.00 0.00 0.00 83 995.5
20260831070047 51 360 7.0 10.0 0.00 0.00 0.00 83 995.5
20260831065545 52 360 7.0 9.0 0.00 0.00 0.00 82 995.5
20260831065046 52 360 6.0 9.0 0.00 0.00 0.00 82 995.5
20260831064546 52 212 6.0 10.0 0.00 0.00 0.00 82 995.6
20260831064044 52 360 7.0 10.0 0.00 0.00 0.00 83 995.7
20260831063545 51 360 5.0 7.0 0.00 0.00 0.00 83 995.8
20260831062547 52 360 5.0 10.0 0.00 0.00 0.00 82 995.7
20260831062044 52 360 7.0 10.0 0.00 0.00 0.00 82 995.9
20260831061545 52 360 7.0 9.0 0.00 0.00 0.00 83 995.9
20260831061044 52 360 7.0 9.0 0.00 0.00 0.00 83 996.0
20260831060541 52 198 7.0 9.0 0.00 0.00 0.00 84 996.1
20260831060056 51 360 6.0 8.0 0.00 0.00 0.00 84 996.0
20260831055540 51 234 4.0 6.0 0.00 0.00 0.00 84 996.0
20260831055039 52 360 4.0 6.0 0.00 0.00 0.00 83 996.0
20260831054539 52 360 4.0 7.0 0.00 0.00 0.00 83 995.9
20260831054039 52 360 4.0 8.0 0.00 0.00 0.00 82 995.9
20260831053537 53 360 5.0 8.0 0.00 0.00 0.00 82 995.9
20260831052537 53 248 5.0 7.0 0.00 0.00 0.00 83 996.0
20260831052035 52 250 4.0 6.0 0.00 0.00 0.00 83 995.9
20260831051538 52 251 2.0 5.0 0.00 0.00 0.00 83 995.8
20260831051035 52 251 2.0 5.0 0.00 0.00 0.00 83 995.9
20260831050536 53 251 2.0 6.0 0.00 0.00 0.00 81 995.8
20260831050033 53 251 3.0 6.0 0.00 0.00 0.00 82 996.0
20260831045533 53 252 1.0 5.0 0.00 0.00 0.00 82 995.9
20260831045032 53 252 1.0 5.0 0.00 0.00 0.00 82 995.9